Los Angeles, CA

12:40 PM PST on November 24, 2017 (GMT -0800)
Los Angeles International

Weather History for KLAX - November, 2012

Change the Weather History Date:

Thursday, November 22, 2012

  Actual Average Record
Temperature  
Mean Temperature 62 °F 60 °F  
Max Temperature 68 °F 68 °F 94 °F (2017)
Min Temperature 55 °F 52 °F 42 °F (1983)
Degree Days  
Heating Degree Days 3 6  
Month to date heating degree days 59 87  
Since 1 July heating degree days 76 131  
Cooling Degree Days 0 0  
Month to date cooling degree days 24 18  
Year to date cooling degree days 735 549  
Growing Degree Days 12 (Base 50)    
Moisture  
Dew Point 56 °F    
Average Humidity 82    
Maximum Humidity 100    
Minimum Humidity 63    
Precipitation  
Precipitation 0.00 in 0.04 in 2.12 in (1965)
Month to date precipitation 0.32 0.74  
Year to date precipitation 5.08 10.40  
Since 1 July precipitation 0.47  
Sea Level Pressure  
Sea Level Pressure 30.09 in    
Wind  
Wind Speed 5 mph (WSW)    
Max Wind Speed 13 mph    
Max Gust Speed 17 mph    
Visibility 3 miles    
Events Fog    
T = Trace of Precipitation, MM = Missing Value Source: NWS Daily Summary

Daily Weather History Graph

Daily Weather History Graph

Search for Another Location

Airport or City:

Trip Planner

Search our weather history database for the weather conditions in past years. The results will help you decide how hot, cold, wet, or windy it might be!

Date:

Astronomy

Nov. 22, 2012 Rise Set
Actual Time 6:33 AM PST 4:46 PM PST
Civil Twilight 6:06 AM PST 5:13 PM PST
Nautical Twilight 5:35 AM PST 5:43 PM PST
Astronomical Twilight 5:05 AM PST 6:13 PM PST
Moon 1:22 PM PST (11/22) 1:11 AM PST (11/22)
Length of Visible Light 11h 07m
Length of Day
10h 13m
Waxing Gibbous, 72% of the Moon is Illuminated
Nov 22
Waxing Gibbous
Nov 28
Full
Dec 6
Last Quarter
Dec 13
New
Dec 19
First Quarter

Hourly Weather History & Observations

Time (PST) Temp. Dew Point Humidity Pressure Visibility Wind Dir Wind Speed Gust Speed Precip Events Conditions
12:51 AM 59.0 °F 57.2 °F 94% 30.06 in 1.5 mi East 6.9 mph - N/A Fog Patches of Fog
12:53 AM 59.0 °F 57.0 °F 93% 30.05 in 1.5 mi East 5.8 mph - N/A Fog Patches of Fog
1:53 AM 58.6 °F 57.0 °F 94% 30.06 in 1.2 mi East 4.6 mph - N/A Fog Patches of Fog
2:53 AM 57.0 °F 57.0 °F 100% 30.06 in 3.0 mi ENE 4.6 mph - N/A Fog Patches of Fog
3:53 AM 57.4 °F 55.9 °F 95% 30.05 in 3.0 mi East 4.6 mph - N/A Fog Patches of Fog
4:49 AM 57.2 °F 55.4 °F 94% 30.06 in 0.5 mi ENE 6.9 mph - N/A Fog Fog
4:53 AM 56.7 °F 55.0 °F 94% 30.06 in 0.2 mi ENE 5.8 mph - N/A Fog Fog
5:53 AM 54.7 °F 54.7 °F 100% 30.07 in 0.2 mi NE 8.1 mph - N/A Fog Fog
6:53 AM 54.7 °F 54.7 °F 100% 30.09 in 0.1 mi ENE 5.8 mph - N/A Fog Fog
7:53 AM 54.9 °F 54.0 °F 97% 30.10 in 0.1 mi ESE 4.6 mph - N/A Fog Fog
8:34 AM 55.4 °F 53.6 °F 94% 30.12 in 0.5 mi ESE 3.5 mph - N/A Fog Fog
8:53 AM 59.2 °F 58.1 °F 96% 30.12 in 0.8 mi Calm Calm - N/A Fog Patches of Fog
9:16 AM 60.8 °F 59.0 °F 94% 30.12 in 2.5 mi Calm Calm - N/A   Scattered Clouds
9:34 AM 60.8 °F 59.0 °F 94% 30.12 in 3.0 mi ESE 3.5 mph - N/A   Partly Cloudy
9:53 AM 62.1 °F 55.0 °F 78% 30.12 in 4.0 mi Calm Calm - N/A   Haze
10:53 AM 66.0 °F 54.0 °F 65% 30.10 in 5.0 mi Calm Calm - N/A   Haze
11:53 AM 66.0 °F 55.9 °F 70% 30.08 in 5.0 mi West 10.4 mph - N/A   Haze
12:53 PM 64.9 °F 55.0 °F 70% 30.06 in 7.0 mi West 9.2 mph - N/A   Clear
1:53 PM 64.0 °F 55.9 °F 75% 30.05 in 7.0 mi West 9.2 mph - N/A   Clear
2:36 PM 64.4 °F 55.4 °F 73% 30.05 in 8.0 mi West 11.5 mph - N/A   Partly Cloudy
2:53 PM 63.0 °F 57.0 °F 81% 30.05 in 8.0 mi West 10.4 mph - N/A   Scattered Clouds
3:53 PM 61.0 °F 55.9 °F 83% 30.06 in 6.0 mi West 10.4 mph - N/A   Haze
4:53 PM 60.1 °F 55.9 °F 86% 30.06 in 4.0 mi WSW 9.2 mph - N/A   Scattered Clouds
5:15 PM 60.8 °F 55.4 °F 82% 30.07 in 5.0 mi West 8.1 mph - N/A   Mostly Cloudy
5:30 PM 60.8 °F 55.4 °F 82% 30.07 in 5.0 mi West 8.1 mph - N/A   Scattered Clouds
5:53 PM 60.1 °F 55.9 °F 86% 30.08 in 5.0 mi WSW 6.9 mph - N/A   Scattered Clouds
6:53 PM 59.5 °F 57.0 °F 91% 30.09 in 4.0 mi West 4.6 mph - N/A   Mostly Cloudy
7:28 PM 59.0 °F 57.2 °F 94% 30.10 in 4.0 mi WSW 3.5 mph - N/A   Partly Cloudy
7:53 PM 59.2 °F 57.0 °F 93% 30.10 in 4.0 mi Calm Calm - N/A   Partly Cloudy
8:53 PM 58.6 °F 57.0 °F 94% 30.11 in 4.0 mi Calm Calm - N/A   Partly Cloudy
9:42 PM 57.2 °F 55.4 °F 94% 30.12 in 2.0 mi Calm Calm - N/A   Scattered Clouds
9:53 PM 57.2 °F 55.9 °F 96% 30.12 in 2.0 mi Calm Calm - N/A   Scattered Clouds
10:53 PM 58.3 °F 55.9 °F 92% 30.13 in 2.5 mi Calm Calm - N/A   Scattered Clouds
11:08 PM 57.2 °F 55.4 °F 94% 30.13 in 0.2 mi Calm Calm - N/A Fog Fog
11:51 PM 57.2 °F 55.4 °F 94% 30.13 in 0.2 mi Calm Calm - N/A Fog Fog
11:53 PM 57.2 °F 55.4 °F 94% 30.12 in 0.2 mi Calm Calm - N/A Fog Fog